Regional Weather Roundup
Issued by NWS

Home | Current Version | Previous Version | Text Only | Print | Product List | Glossary Off
Versions: 1 2 3 4 5 6 7 8 9 10 11 12 13 14 15 16 17 18 19 20 21 22 23 24 25 26 27 28 29 30 31 32 33 34 35 36 37 38 39 40 41 42 43 44 45 46 47 48 49 50

000
ASUS43 KDTX 202010
RWRMI
MICHIGAN HOURLY REGIONAL WEATHER ROUNDUP
NATIONAL WEATHER SERVICE DETROIT/PONTIAC MI
300 PM EST SAT DEC 20 2014

NOTE: "FAIR" INDICATES FEW OR NO CLOUDS BELOW 12,000 FEET WITH NO
SIGNIFICANT WEATHER AND/OR OBSTRUCTION TO VISIBILITY.

MIZ047>049-052>055-059>063-066>070-074>076-081>083-202100-
SOUTHEAST LOWER MICHIGAN

CITY           SKY/WX    TMP DP  RH WIND       PRES   REMARKS
ADRIAN         CLOUDY    30  20  66 W5        30.25F
ALMA           PTSUNNY   30  24  77 S3        30.26S
ANN ARBOR      CLOUDY    30  21  69 CALM      30.25F
BAD AXE        CLOUDY    29  23  76 CALM      30.26S
DETROIT CITY   CLOUDY    32  20  61 CALM      30.27S
DETROIT        CLOUDY    30  22  72 CALM      30.27F
FLINT          CLOUDY    31  20  63 SW3       30.25F
GROSSE ILE     CLOUDY    30  21  69 CALM      30.25F
HILLSDALE      CLOUDY    30  22  72 N3        30.22S
HOWELL         CLOUDY    28  21  75 CALM      30.24S

CITY           SKY/WX    TMP DP  RH WIND       PRES   REMARKS
JACKSON        CLOUDY    29  21  72 CALM      30.24S
LAMBERTVILLE   CLOUDY    32  21  64 CALM      30.25F
LANSING        CLOUDY    30  21  69 SW5       30.25F
LAPEER         NOT AVBL
MASON          CLOUDY    28  21  74 CALM      30.24F
MONROE         CLOUDY    30  25  80 CALM      30.24F
MT. CLEMENS    CLOUDY    30  21  67 W5        30.24F
PONTIAC        CLOUDY    28  19  69 S5        30.23F
PORT HOPE        N/A     31  19  61 CALM      30.24F
PORT HURON     CLOUDY    30  19  64 CALM      30.27S
TRI CITIES     PTSUNNY   31  22  69 S3        30.27R
YPSILANTI      CLOUDY    33  21  61 S3        30.26F
$$
MIZ043>046-050>051-056>058-064>065-071>073-077>080-202100-
SOUTHWEST LOWER MICHIGAN

CITY           SKY/WX    TMP DP  RH WIND       PRES   REMARKS
BATTLE CREEK   CLOUDY    32  22  66 CALM      30.23F
BENTON HARBOR  CLOUDY    32  26  78 SW7       30.24F
BIG RAPIDS     CLOUDY    29  24  81 CALM      30.22F
COLDWATER      CLOUDY    32  22  66 CALM      30.22F
HOLLAND        CLOUDY    31  25  78 S3        30.25F
GRAND RAPIDS   CLOUDY    32  22  66 S3        30.24F
KALAMAZOO      CLOUDY    31  23  72 CALM      30.24F
MARSHALL       CLOUDY    30  20  66 CALM      30.23F
MUSKEGON       FLURRIES  30  23  75 SE6       30.25F
$$
MIZ016>042-202100-
NORTHERN LOWER MICHIGAN

CITY           SKY/WX    TMP DP  RH WIND       PRES   REMARKS
ALPENA         MOSUNNY   29  21  72 CALM      30.25F
BEAVER ISLAND  PTSUNNY   29  25  82 SE6       30.23S
BELLAIRE       CLOUDY    30  23  75 CALM      30.25S
CADILLAC       CLOUDY    27  20  74 NE3       30.20S
CHARLEVOIX     CLOUDY    28  23  81 SE5       30.27S
FRANKFORT      CLOUDY    30  24  78 CALM      30.23F
GAYLORD        CLOUDY    26  19  74 CALM      30.20S
GRAYLING       PTSUNNY   26  20  80 S5        30.23S
HARBOR SPRINGS CLOUDY    26  21  79 E3        30.24S
HOUGHTON LAKE  CLOUDY    24  18  77 W6        30.23S
MANISTEE       CLOUDY    28  19  69 CALM      30.25S
OSCODA         MOSUNNY   29  24  80 E3        30.25S
PELLSTON       PTSUNNY   25  20  81 SE3       30.25F
TRAVERSE CITY  CLOUDY    31  22  69 E5        30.23F
$$
MIZ007>008-015-202100-
EASTERN UPPER MICHIGAN

CITY           SKY/WX    TMP DP  RH WIND       PRES   REMARKS
KINROSS        MOSUNNY   27  21  80 CALM      30.23F
MACKINAC ISLAN PTSUNNY   28  20  73 SE3       30.23F
NEWBERRY       CLOUDY    28  23  82 S5        30.21S
S. S. MARIE    MOSUNNY   25  17  72 CALM      30.23F
$$
MIZ004>006-011>014-085-202100-
CENTRAL UPPER MICHIGAN

CITY           SKY/WX    TMP DP  RH WIND       PRES   REMARKS
MANISTIQUE     CLOUDY    31  25  78 MISG      30.21F
ESCANABA       CLOUDY    28  19  69 W3        30.22S
MENOMINEE      CLOUDY    28  21  74 CALM      30.22S
SAWYER-GWINN   CLOUDY    25  23  93 SW7       30.17S
$$
MIZ001>003-009>011-084-202100-
WESTERN UPPER MICHIGAN

CITY           SKY/WX    TMP DP  RH WIND       PRES   REMARKS
IRON MOUNTAIN  CLOUDY    27  23  85 SE3       30.17F
HOUGHTON       CLOUDY    25  21  85 S5        30.14F
COPPER HARBOR    N/A     31  23  72 W3        30.16F
IRONWOOD       CLOUDY    30  27  86 S8        30.10S
$$

ABBREVIATIONS USED IN REMARKS
   TC - TEMPERATURE IN CELSIUS
  WCI - WIND CHILL INDEX
   HX - HEAT INDEX
  VSB - VISIBILITY




USA.gov is the U.S. government's official web portal to all federal, state and local government web resources and services.